Weather History for York, PA

Change the Weather History Date:

Saturday, May 25, 2013

  Actual Average Record
Temperature  
Mean Temperature 54 °F -  
Max Temperature 64 °F 72 °F 87 °F (2007)
Min Temperature 43 °F 55 °F 42 °F (2008)
Degree Days  
Heating Degree Days 12    
Growing Degree Days 4 (Base 50)    
Moisture  
Dew Point 31 °F    
Average Humidity 43    
Maximum Humidity 65    
Minimum Humidity 24    
Precipitation  
Precipitation 0.00 in - - ()
Sea Level Pressure  
Sea Level Pressure 30.11 in    
Wind  
Wind Speed 12 mph (NW)    
Max Wind Speed 21 mph    
Max Gust Speed 31 mph    
Visibility 10 miles    
Events      
Averages and records for this station are not official NWS values.
T = Trace of Precipitation, MM = Missing Value Source: NWS Daily Summary

Daily Weather History Graph

Daily Weather History Graph

Search for Another Location

Airport:

Trip Planner

Search our weather history database for the weather conditions in past years. The results will help you decide how hot, cold, wet, or windy it might be!

Date:

Astronomy

May. 25, 2013 Rise Set
Actual Time 5:44 AM EDT 8:24 PM EDT
Civil Twilight 5:13 AM EDT 8:56 PM EDT
Nautical Twilight 4:33 AM EDT 9:35 PM EDT
Astronomical Twilight 3:49 AM EDT 10:20 PM EDT
Moon 9:10 PM EDT (5/25) 6:09 AM EDT (5/25)
Length of Visible Light 15h 43m
Length of Day
14h 40m
Full, 100% of the Moon is Illuminated
May 25
Full
May 31
Last Quarter
Jun 8
New
Jun 16
First Quarter
Jun 23
Full

Hourly Weather History & Observations

Time (EDT) Temp. Windchill Dew Point Humidity Pressure Visibility Wind Dir Wind Speed Gust Speed Precip Events Conditions
12:53 AM 46.9 °F - 30.0 °F 52% 30.12 in 10.0 mi NW 10.4 mph 18.4 mph N/A   Overcast
1:53 AM 46.0 °F 41.9 °F 30.9 °F 56% 30.12 in 10.0 mi WNW 8.1 mph - N/A   Scattered Clouds
2:53 AM 45.0 °F 39.3 °F 30.9 °F 58% 30.11 in 10.0 mi WNW 11.5 mph - N/A   Clear
3:53 AM 44.1 °F 39.0 °F 32.0 °F 63% 30.12 in 10.0 mi WNW 9.2 mph - N/A   Clear
4:53 AM 43.0 °F 37.2 °F 32.0 °F 65% 30.13 in 10.0 mi WNW 10.4 mph - N/A   Clear
5:53 AM 44.1 °F 39.0 °F 32.0 °F 63% 30.13 in 10.0 mi West 9.2 mph - N/A   Clear
6:53 AM 45.0 °F 41.2 °F 32.0 °F 60% 30.14 in 10.0 mi West 6.9 mph - N/A   Clear
7:53 AM 48.9 °F - 34.0 °F 56% 30.15 in 10.0 mi West 10.4 mph - N/A   Clear
8:53 AM 51.1 °F - 33.1 °F 50% 30.15 in 10.0 mi NW 15.0 mph 24.2 mph N/A   Clear
9:53 AM 53.1 °F - 33.1 °F 47% 30.15 in 10.0 mi NNW 13.8 mph 25.3 mph N/A   Partly Cloudy
10:53 AM 54.0 °F - 33.1 °F 45% 30.14 in 10.0 mi NNW 17.3 mph 31.1 mph N/A   Scattered Clouds
11:53 AM 57.0 °F - 33.1 °F 40% 30.13 in 10.0 mi NNW 18.4 mph 28.8 mph N/A   Partly Cloudy
12:53 PM 59.0 °F - 33.1 °F 38% 30.12 in 10.0 mi NW 20.7 mph 28.8 mph N/A   Clear
1:53 PM 60.1 °F - 33.1 °F 36% 30.10 in 10.0 mi WNW 15.0 mph 24.2 mph N/A   Scattered Clouds
2:53 PM 62.1 °F - 33.1 °F 34% 30.09 in 10.0 mi NW 13.8 mph 23.0 mph N/A   Partly Cloudy
3:53 PM 63.0 °F - 32.0 °F 31% 30.07 in 10.0 mi WNW 13.8 mph 24.2 mph N/A   Partly Cloudy
4:53 PM 64.0 °F - 30.9 °F 29% 30.06 in 10.0 mi NW 17.3 mph 27.6 mph N/A   Partly Cloudy
5:53 PM 64.0 °F - 28.0 °F 26% 30.05 in 10.0 mi WNW 18.4 mph 25.3 mph N/A   Partly Cloudy
6:53 PM 63.0 °F - 25.0 °F 24% 30.07 in 10.0 mi NW 15.0 mph 26.5 mph N/A   Clear
7:53 PM 61.0 °F - 26.1 °F 26% 30.09 in 10.0 mi NW 13.8 mph 20.7 mph N/A   Clear
8:53 PM 57.9 °F - 25.0 °F 28% 30.09 in 10.0 mi NW 11.5 mph 21.9 mph N/A   Clear
9:53 PM 55.9 °F - 26.1 °F 32% 30.12 in 10.0 mi NW 11.5 mph - N/A   Clear
10:53 PM 55.9 °F - 27.0 °F 33% 30.14 in 10.0 mi NNW 9.2 mph 23.0 mph N/A   Clear
11:53 PM 52.0 °F - 28.9 °F 41% 30.15 in 10.0 mi WNW 5.8 mph - N/A   Clear